Weather History for KSMO - March, 2013

Change the Weather History Date:

Friday, March 8, 2013

  Actual Average Record
Temperature  
Mean Temperature 51 °F -  
Max Temperature 57 °F 67 °F 89 °F (2004)
Min Temperature 45 °F 50 °F 39 °F (1949)
Degree Days  
Heating Degree Days 14    
Growing Degree Days 1 (Base 50)    
Moisture  
Dew Point 44 °F    
Average Humidity 75    
Maximum Humidity 90    
Minimum Humidity 51    
Precipitation  
Precipitation 0.29 in - - ()
Sea Level Pressure  
Sea Level Pressure 29.89 in    
Wind  
Wind Speed 6 mph (WSW)    
Max Wind Speed 15 mph    
Max Gust Speed 23 mph    
Visibility 8 miles    
Events Rain , Thunderstorm    
Averages and records for this station are not official NWS values.
T = Trace of Precipitation, MM = Missing Value Source: NWS Daily Summary

Daily Weather History Graph

Daily Weather History Graph

Search for Another Location

Airport or City:

Trip Planner

Search our weather history database for the weather conditions in past years. The results will help you decide how hot, cold, wet, or windy it might be!

Date:

Astronomy

Mar. 08, 2013 Rise Set
Actual Time 6:13 AM PST 5:56 PM PST
Civil Twilight 5:48 AM PST 6:21 PM PST
Nautical Twilight 5:19 AM PST 6:50 PM PST
Astronomical Twilight 4:50 AM PST 7:19 PM PST
Moon 3:53 AM PST (3/8) 3:03 PM PST (3/8)
Length of Visible Light 12h 33m
Length of Day
11h 43m
Waning Crescent, 11% of the Moon is Illuminated
Mar 8
Waning Crescent
Mar 11
New
Mar 19
First Quarter
Mar 27
Full
Apr 2
Last Quarter

Hourly Weather History & Observations

Time (PST) Temp. Windchill Dew Point Humidity Pressure Visibility Wind Dir Wind Speed Gust Speed Precip Events Conditions
12:09 AM 53.6 °F - 48.2 °F 82% 29.84 in 3.0 mi ESE 5.8 mph - 0.06 in Rain Heavy Rain
12:51 AM 52.0 °F - 46.9 °F 83% 29.82 in 10.0 mi East 5.8 mph - 0.10 in   Overcast
1:12 AM 51.8 °F - 48.2 °F 88% 29.85 in 4.0 mi West 11.5 mph 19.6 mph 0.05 in Rain , Thunderstorm Thunderstorms and Rain
1:21 AM 48.2 °F - 44.6 °F 87% 29.85 in 2.0 mi West 5.8 mph 19.6 mph 0.11 in Rain Heavy Rain
1:28 AM 46.4 °F 42.9 °F 42.8 °F 87% 29.84 in 1.5 mi West 6.9 mph - 0.19 in Rain Heavy Rain
1:38 AM 46.4 °F 45.2 °F 42.8 °F 87% 29.84 in 2.0 mi NNW 3.5 mph - 0.29 in Rain Heavy Rain
2:51 AM 48.0 °F - 45.0 °F 89% 29.82 in 8.0 mi SSE 4.6 mph - 0.10 in Rain Light Rain
3:08 AM 48.2 °F - 44.6 °F 87% 29.81 in 6.0 mi Calm Calm - 0.02 in Rain Rain
3:51 AM 46.9 °F - 43.0 °F 86% 29.79 in 10.0 mi North 6.9 mph - 0.09 in Rain Light Rain
4:51 AM 46.9 °F - 42.1 °F 83% 29.80 in 10.0 mi NNW 5.8 mph - 0.00 in   Mostly Cloudy
5:51 AM 46.9 °F - 42.1 °F 83% 29.82 in 10.0 mi Calm Calm - N/A   Mostly Cloudy
6:51 AM 45.0 °F - 42.1 °F 90% 29.85 in 10.0 mi Calm Calm - N/A   Scattered Clouds
9:51 AM 55.0 °F - 39.0 °F 55% 29.89 in 10.0 mi SW 9.2 mph - N/A   Scattered Clouds
10:51 AM 55.9 °F - 39.9 °F 55% 29.90 in 10.0 mi Variable 5.8 mph - N/A   Mostly Cloudy
11:51 AM 57.0 °F - 41.0 °F 55% 29.91 in 10.0 mi SW 10.4 mph - N/A   Mostly Cloudy
12:51 PM 55.9 °F - 39.0 °F 53% 29.89 in 10.0 mi WSW 11.5 mph 19.6 mph N/A   Mostly Cloudy
1:51 PM 57.9 °F - 39.9 °F 51% 29.89 in 10.0 mi WSW 11.5 mph 21.9 mph N/A   Mostly Cloudy
2:51 PM 55.9 °F - 42.1 °F 60% 29.89 in 10.0 mi SW 15.0 mph 21.9 mph N/A   Scattered Clouds
3:51 PM 55.9 °F - 42.1 °F 60% 29.89 in 10.0 mi WSW 12.7 mph 23.0 mph N/A   Overcast
4:51 PM 55.0 °F - 44.1 °F 67% 29.90 in 10.0 mi WSW 9.2 mph - N/A   Overcast
5:51 PM 55.0 °F - 46.0 °F 72% 29.93 in 10.0 mi WSW 11.5 mph 20.7 mph 0.00 in   Overcast
6:51 PM 55.0 °F - 46.9 °F 74% 29.96 in 10.0 mi WSW 11.5 mph 20.7 mph N/A   Mostly Cloudy
7:51 PM 55.0 °F - 46.0 °F 72% 29.98 in 10.0 mi Calm Calm - N/A   Mostly Cloudy
8:51 PM 54.0 °F - 46.0 °F 75% 29.99 in 10.0 mi Calm Calm - N/A   Mostly Cloudy
9:51 PM 52.0 °F - 46.0 °F 80% 30.01 in 10.0 mi NE 4.6 mph - N/A   Clear
10:51 PM 51.1 °F - 46.0 °F 83% 30.01 in 10.0 mi Calm Calm - N/A   Clear
11:51 PM 51.1 °F - 45.0 °F 80% 30.02 in 10.0 mi Calm Calm - N/A   Scattered Clouds